TimeEDT,TemperatureF,Dew PointF,Humidity,Sea Level PressureIn,VisibilityMPH,Wind Direction,Wind SpeedMPH,Gust SpeedMPH,PrecipitationIn,Events,Conditions,WindDirDegrees,DateUTC
12:15 AM,73.4,68.0,83,29.97,10.0,NNE,4.6,-,N/A,,Scattered Clouds,30,2012-10-25 04:15:00
12:35 AM,73.4,68.0,83,29.96,10.0,NNE,4.6,-,N/A,,Clear,30,2012-10-25 04:35:00
12:55 AM,71.6,68.0,88,29.95,10.0,NNE,5.8,-,N/A,,Clear,30,2012-10-25 04:55:00
1:15 AM,71.6,69.8,94,29.95,10.0,North,4.6,-,N/A,,Scattered Clouds,10,2012-10-25 05:15:00
1:35 AM,71.6,71.6,100,29.94,10.0,NNE,4.6,-,N/A,,Scattered Clouds,20,2012-10-25 05:35:00
1:55 AM,71.6,-9999,N/A,29.94,10.0,NNE,4.6,-,N/A,,Clear,20,2012-10-25 05:55:00
2:35 AM,71.6,-9999,N/A,29.92,10.0,NNE,6.9,-,N/A,,Clear,20,2012-10-25 06:35:00
2:55 AM,71.6,-9999,N/A,29.91,10.0,NNE,4.6,-,N/A,,Clear,30,2012-10-25 06:55:00
3:35 AM,71.6,-9999,N/A,29.90,10.0,NNE,4.6,-,N/A,,Clear,30,2012-10-25 07:35:00
3:55 AM,71.6,-9999,N/A,29.90,10.0,North,5.8,-,N/A,,Clear,10,2012-10-25 07:55:00
4:15 AM,71.6,-9999,N/A,29.89,10.0,NNE,5.8,-,N/A,,Mostly Cloudy,20,2012-10-25 08:15:00
4:35 AM,71.6,-9999,N/A,29.89,10.0,NNE,6.9,-,N/A,,Overcast,30,2012-10-25 08:35:00
4:55 AM,71.6,-9999,N/A,29.89,10.0,NNE,5.8,-,N/A,,Overcast,30,2012-10-25 08:55:00
5:15 AM,73.4,-9999,N/A,29.90,10.0,NNE,5.8,-,N/A,,Overcast,30,2012-10-25 09:15:00
5:35 AM,73.4,-9999,N/A,29.90,10.0,NE,6.9,-,N/A,,Overcast,40,2012-10-25 09:35:00
5:55 AM,73.4,-9999,N/A,29.90,10.0,NE,3.5,-,N/A,,Overcast,40,2012-10-25 09:55:00
6:15 AM,73.4,-9999,N/A,29.90,10.0,NE,5.8,-,N/A,,Overcast,40,2012-10-25 10:15:00
6:35 AM,73.4,-9999,N/A,29.90,10.0,NNE,5.8,-,N/A,,Mostly Cloudy,30,2012-10-25 10:35:00
6:55 AM,73.4,-9999,N/A,29.91,10.0,NNE,4.6,-,N/A,,Scattered Clouds,20,2012-10-25 10:55:00
7:55 AM,73.4,-9999,N/A,29.92,10.0,NNE,4.6,-,N/A,,Mostly Cloudy,20,2012-10-25 11:55:00
8:15 AM,73.4,-9999,N/A,29.92,10.0,NNE,4.6,-,N/A,,Overcast,20,2012-10-25 12:15:00
8:35 AM,73.4,-9999,N/A,29.93,10.0,NNE,5.8,-,N/A,,Mostly Cloudy,30,2012-10-25 12:35:00
8:55 AM,75.2,-9999,N/A,29.93,10.0,NE,9.2,-,N/A,,Scattered Clouds,40,2012-10-25 12:55:00
9:35 AM,75.2,-9999,N/A,29.93,10.0,NE,8.1,-,N/A,,Clear,50,2012-10-25 13:35:00
9:55 AM,77.0,71.6,83,29.93,10.0,NNE,4.6,-,N/A,,Scattered Clouds,30,2012-10-25 13:55:00
10:15 AM,77.0,71.6,83,29.93,10.0,NNE,6.9,-,N/A,,Overcast,30,2012-10-25 14:15:00
10:35 AM,77.0,71.6,83,29.93,10.0,NNE,9.2,-,N/A,,Overcast,30,2012-10-25 14:35:00
10:55 AM,78.8,71.6,78,29.93,10.0,NE,6.9,-,N/A,,Scattered Clouds,50,2012-10-25 14:55:00
11:35 AM,80.6,71.6,74,29.92,10.0,NE,8.1,-,N/A,,Scattered Clouds,40,2012-10-25 15:35:00
11:55 AM,82.4,71.6,70,29.91,10.0,ENE,13.8,20.7,N/A,,Scattered Clouds,60,2012-10-25 15:55:00
12:15 PM,84.2,68.0,58,29.91,10.0,ENE,11.5,26.5,N/A,,Scattered Clouds,70,2012-10-25 16:15:00
12:35 PM,86.0,68.0,55,29.89,10.0,ENE,16.1,20.7,N/A,,Mostly Cloudy,60,2012-10-25 16:35:00
12:55 PM,86.0,68.0,55,29.88,10.0,ENE,13.8,18.4,N/A,,Mostly Cloudy,70,2012-10-25 16:55:00
1:15 PM,86.0,68.0,55,29.87,10.0,ENE,13.8,20.7,N/A,,Scattered Clouds,60,2012-10-25 17:15:00
1:35 PM,86.0,66.2,51,29.86,10.0,NE,17.3,23.0,N/A,,Clear,50,2012-10-25 17:35:00
1:55 PM,86.0,64.4,48,29.85,10.0,East,10.4,19.6,N/A,,Clear,80,2012-10-25 17:55:00
2:15 PM,86.0,68.0,55,29.84,10.0,East,8.1,-,N/A,,Mostly Cloudy,80,2012-10-25 18:15:00
2:55 PM,86.0,66.2,51,29.84,10.0,ENE,16.1,19.6,N/A,,Scattered Clouds,70,2012-10-25 18:55:00
3:15 PM,86.0,66.2,51,29.83,10.0,NE,10.4,17.3,N/A,,Clear,50,2012-10-25 19:15:00
3:35 PM,84.2,66.2,55,29.83,10.0,NE,12.7,19.6,N/A,,Clear,50,2012-10-25 19:35:00
3:55 PM,86.0,66.2,51,29.83,10.0,NE,11.5,17.3,N/A,,Clear,50,2012-10-25 19:55:00
4:15 PM,82.4,66.2,58,29.83,10.0,NE,16.1,26.5,N/A,,Scattered Clouds,50,2012-10-25 20:15:00
4:35 PM,82.4,66.2,58,29.83,10.0,NNE,13.8,20.7,N/A,,Scattered Clouds,20,2012-10-25 20:35:00
4:55 PM,80.6,69.8,70,29.84,10.0,NE,13.8,20.7,N/A,,Scattered Clouds,50,2012-10-25 20:55:00
5:15 PM,80.6,69.8,70,29.84,10.0,NNE,13.8,20.7,N/A,,Scattered Clouds,30,2012-10-25 21:15:00
5:35 PM,78.8,69.8,74,29.85,10.0,NE,9.2,19.6,N/A,,Mostly Cloudy,50,2012-10-25 21:35:00
5:55 PM,78.8,69.8,74,29.86,10.0,NE,12.7,20.7,N/A,,Scattered Clouds,40,2012-10-25 21:55:00
6:15 PM,77.0,69.8,78,29.86,10.0,NE,11.5,19.6,N/A,,Mostly Cloudy,50,2012-10-25 22:15:00
6:35 PM,77.0,69.8,78,29.87,10.0,NE,10.4,23.0,N/A,Rain,Light Rain,40,2012-10-25 22:35:00
6:55 PM,75.2,71.6,89,29.87,10.0,NNE,5.8,9.2,N/A,Rain,Light Rain,20,2012-10-25 22:55:00
7:15 PM,75.2,75.2,100,29.87,10.0,North,5.8,-,N/A,,Scattered Clouds,10,2012-10-25 23:15:00
7:35 PM,73.4,73.4,100,29.87,10.0,North,5.8,-,N/A,,Clear,10,2012-10-25 23:35:00
7:55 PM,73.4,-9999,N/A,29.87,10.0,North,5.8,-,N/A,,Clear,10,2012-10-25 23:55:00
8:15 PM,73.4,-9999,N/A,29.87,10.0,North,5.8,-,N/A,,Clear,10,2012-10-26 00:15:00
8:35 PM,73.4,-9999,N/A,29.86,10.0,North,6.9,-,N/A,,Clear,10,2012-10-26 00:35:00
8:55 PM,73.4,-9999,N/A,29.86,10.0,North,6.9,-,N/A,,Clear,10,2012-10-26 00:55:00
9:15 PM,73.4,-9999,N/A,29.86,10.0,North,5.8,-,N/A,,Clear,350,2012-10-26 01:15:00
9:35 PM,73.4,-9999,N/A,29.87,10.0,North,5.8,-,N/A,,Mostly Cloudy,10,2012-10-26 01:35:00
9:55 PM,73.4,-9999,N/A,29.87,10.0,North,3.5,-,N/A,,Overcast,360,2012-10-26 01:55:00
10:15 PM,73.4,-9999,N/A,29.87,7.0,North,3.5,-,0.02,Rain,Heavy Rain,10,2012-10-26 02:15:00
10:35 PM,73.4,-9999,N/A,29.87,10.0,North,3.5,-,0.02,,Scattered Clouds,360,2012-10-26 02:35:00
10:55 PM,73.4,-9999,N/A,29.87,10.0,North,3.5,-,0.03,,Scattered Clouds,360,2012-10-26 02:55:00
11:15 PM,73.4,-9999,N/A,29.86,10.0,North,4.6,-,N/A,,Clear,360,2012-10-26 03:15:00
11:35 PM,73.4,-9999,N/A,29.85,10.0,North,4.6,-,N/A,,Clear,360,2012-10-26 03:35:00
11:55 PM,73.4,-9999,N/A,29.84,10.0,North,4.6,-,N/A,,Clear,350,2012-10-26 03:55:00